Location: Newark
(33.4453°N, 112.0669°W)
Time: 16:33:44
(UTC+00:00)

Explorer 11/Cluster Stage 4 - Visible Passes

Search period start: 19 February 2020 00:00
Search period end: 29 February 2020 00:00
Orbit: 467 x 1259 km, 28.8° (Epoch: 18 February)

Date Brightness Start Highest point End Pass type
(mag) Time Alt. Az. Time Alt. Az. Time Alt. Az.
19 Feb 6.5 12:22:39 38° SSE 12:22:39 38° SSE 12:25:40 10° ESE visible
20 Feb 6.9 12:12:40 32° SE 12:12:40 32° SE 12:15:03 10° ESE visible
21 Feb 7.5 12:02:41 25° SE 12:02:41 25° SE 12:04:28 10° ESE visible
22 Feb 8.0 11:52:42 19° SE 11:52:42 19° SE 11:53:53 10° ESE visible
22 Feb 7.5 13:35:43 10° WSW 13:38:16 18° SSW 13:40:50 10° SSE visible
23 Feb 8.4 11:42:44 14° SE 11:42:44 14° SE 11:43:18 10° ESE visible
23 Feb 7.6 13:25:23 10° WSW 13:27:38 15° SSW 13:29:51 10° SSE visible
24 Feb 7.8 13:15:08 10° SW 13:16:58 13° SSW 13:18:46 10° S visible
25 Feb 7.9 13:05:07 10° SW 13:06:17 11° SSW 13:07:26 10° S visible
